When you browse on this site, cookies collect data to enhance your experience and personalize the content and advertising you see.
Visit our Privacy Policy to learn more. By continuing to use the site, you agree to this use of cookies and data.
  • In Netherlands
  • List of Countries
  • For 7 days
  • Water Temperature
  • Weather Map
  • Weather Widgets
  • user-avatar
    Login

    Hourly Weather Cobija

    Today, 22 August, Thursday

    Time Temperature Precipitation Wind Pressure Humidity
    00:00 +22°C° 0 mm 0 mps 741 mmHg 52%
    01:00 +23°C° 0 mm 1 mps 741 mmHg 53%
    02:00 +23°C° 0 mm 1 mps 741 mmHg 54%
    03:00 +21°C° 0 mm 0 mps 740 mmHg 56%
    04:00 +20°C° 0 mm 0 mps 740 mmHg 58%
    05:00 +21°C° 0 mm 0 mps 741 mmHg 56%
    06:00 +22°C° 0 mm 0 mps 741 mmHg 54%
    07:00 +23°C° 0 mm 0 mps 742 mmHg 53%
    08:00 +29°C° 0 mm 1 mps 742 mmHg 44%
    09:00 +32°C° 0 mm 1 mps 742 mmHg 36%
    10:00 +36°C° 0 mm 1 mps 742 mmHg 28%
    11:00 +39°C° 0 mm 1 mps 741 mmHg 26%
    12:00 +40°C° 0 mm 1 mps 740 mmHg 23%
    13:00 +42°C° 0 mm 1 mps 739 mmHg 21%
    14:00 +41°C° 0 mm 1 mps 738 mmHg 22%
    15:00 +39°C° 0 mm 1 mps 738 mmHg 24%
    16:00 +35°C° 0 mm 0 mps 737 mmHg 25%
    17:00 +33°C° 0 mm 0 mps 737 mmHg 29%
    18:00 +31°C° 0 mm 0 mps 738 mmHg 33%
    19:00 +28°C° 0 mm 0 mps 738 mmHg 37%
    20:00 +28°C° 0 mm 0 mps 739 mmHg 37%
    21:00 +28°C° 0 mm 0 mps 739 mmHg 38%
    22:00 +28°C° 0 mm 0 mps 740 mmHg 39%
    23:00 +28°C° 0 mm 0 mps 740 mmHg 40%

    Tomorrow, 23 August, Friday

    Time Temperature Precipitation Wind Pressure Humidity
    00:00 +27°C° 0 mm 0 mps 740 mmHg 41%
    01:00 +29°C° 0 mm 1 mps 740 mmHg 42%
    02:00 +29°C° 0 mm 1 mps 740 mmHg 43%
    03:00 +28°C° 0 mm 1 mps 740 mmHg 44%
    04:00 +28°C° 0 mm 1 mps 740 mmHg 44%
    05:00 +28°C° 0 mm 1 mps 740 mmHg 45%
    06:00 +26°C° 0 mm 0 mps 741 mmHg 46%
    07:00 +26°C° 0 mm 0 mps 741 mmHg 47%
    08:00 +31°C° 0 mm 1 mps 741 mmHg 39%
    09:00 +35°C° 0 mm 1 mps 742 mmHg 32%
    10:00 +39°C° 0 mm 1 mps 742 mmHg 24%
    11:00 +39°C° 0 mm 2 mps 741 mmHg 23%
    12:00 +40°C° 0 mm 2 mps 740 mmHg 21%
    13:00 +40°C° 0 mm 2 mps 739 mmHg 20%
    14:00 +39°C° 0 mm 2 mps 739 mmHg 21%
    15:00 +39°C° 0 mm 2 mps 738 mmHg 23%
    16:00 +37°C° 0 mm 1 mps 737 mmHg 24%
    17:00 +35°C° 0 mm 1 mps 737 mmHg 28%
    18:00 +32°C° 0 mm 1 mps 738 mmHg 32%
    19:00 +28°C° 0 mm 0 mps 738 mmHg 36%
    20:00 +27°C° 0 mm 0 mps 738 mmHg 38%
    21:00 +26°C° 0 mm 0 mps 739 mmHg 40%
    22:00 +27°C° 0 mm 1 mps 739 mmHg 41%
    23:00 +27°C° 0 mm 1 mps 739 mmHg 43%

    Day after tomorrow, 24 August, Saturday

    Time Temperature Precipitation Wind Pressure Humidity
    00:00 +26°C° 0 mm 1 mps 738 mmHg 45%
    01:00 +26°C° 0 mm 1 mps 738 mmHg 47%
    02:00 +23°C° 0 mm 0 mps 738 mmHg 48%
    03:00 +23°C° 0 mm 0 mps 738 mmHg 50%
    04:00 +22°C° 0 mm 0 mps 738 mmHg 51%
    05:00 +23°C° 0 mm 0 mps 738 mmHg 50%
    06:00 +24°C° 0 mm 0 mps 739 mmHg 48%
    07:00 +25°C° 0 mm 0 mps 740 mmHg 47%
    08:00 +29°C° 0 mm 0 mps 740 mmHg 39%
    09:00 +35°C° 0 mm 1 mps 740 mmHg 31%
    10:00 +40°C° 0 mm 1 mps 741 mmHg 23%
    11:00 +42°C° 0 mm 1 mps 740 mmHg 20%
    12:00 +40°C° 0 mm 0 mps 739 mmHg 17%
    13:00 +42°C° 0 mm 0 mps 738 mmHg 15%
    14:00 +40°C° 0 mm 0 mps 737 mmHg 17%
    15:00 +38°C° 0 mm 0 mps 736 mmHg 19%
    16:00 +36°C° 0 mm 0 mps 735 mmHg 22%
    17:00 +34°C° 0 mm 0 mps 735 mmHg 26%
    18:00 +31°C° 0 mm 0 mps 736 mmHg 29%
    19:00 +29°C° 0 mm 0 mps 736 mmHg 33%
    20:00 +28°C° 0 mm 0 mps 736 mmHg 35%
    21:00 +27°C° 0 mm 0 mps 737 mmHg 37%
    22:00 +27°C° 0 mm 0 mps 737 mmHg 38%
    23:00 +26°C° 0 mm 0 mps 737 mmHg 40%

    25 August, Sunday

    Time Temperature Precipitation Wind Pressure Humidity
    00:00 +27°C° 0 mm 1 mps 737 mmHg 41%
    01:00 +27°C° 0 mm 1 mps 737 mmHg 42%
    02:00 +27°C° 0 mm 1 mps 737 mmHg 42%
    03:00 +27°C° 0 mm 1 mps 737 mmHg 41%
    04:00 +25°C° 0 mm 0 mps 737 mmHg 41%
    05:00 +25°C° 0 mm 0 mps 737 mmHg 42%
    06:00 +26°C° 0 mm 0 mps 738 mmHg 43%
    07:00 +26°C° 0 mm 0 mps 739 mmHg 44%
    08:00 +31°C° 0 mm 1 mps 739 mmHg 38%
    09:00 +34°C° 0 mm 1 mps 739 mmHg 32%
    10:00 +37°C° 0 mm 1 mps 739 mmHg 26%
    11:00 +39°C° 0 mm 1 mps 739 mmHg 26%
    12:00 +39°C° 0 mm 2 mps 738 mmHg 25%
    13:00 +40°C° 0 mm 2 mps 737 mmHg 24%
    14:00 +40°C° 0 mm 2 mps 736 mmHg 24%
    15:00 +39°C° 0 mm 1 mps 736 mmHg 24%
    16:00 +39°C° 0 mm 1 mps 735 mmHg 24%
    17:00 +34°C° 0 mm 0 mps 735 mmHg 29%
    18:00 +31°C° 0 mm 0 mps 736 mmHg 33%
    19:00 +28°C° 0 mm 0 mps 736 mmHg 38%
    20:00 +28°C° 0 mm 0 mps 736 mmHg 39%
    21:00 +27°C° 0 mm 0 mps 736 mmHg 40%
    22:00 +27°C° 0 mm 0 mps 737 mmHg 41%
    23:00 +26°C° 0 mm 0 mps 737 mmHg 43%

    26 August, Monday

    Time Temperature Precipitation Wind Pressure Humidity
    00:00 +26°C° 0 mm 0 mps 736 mmHg 45%
    01:00 +25°C° 0 mm 0 mps 736 mmHg 47%
    02:00 +25°C° 0 mm 0 mps 736 mmHg 49%
    03:00 +24°C° 0 mm 0 mps 737 mmHg 51%
    04:00 +24°C° 0 mm 0 mps 737 mmHg 53%
    05:00 +25°C° 0 mm 0 mps 738 mmHg 52%
    06:00 +25°C° 0 mm 0 mps 738 mmHg 52%
    07:00 +26°C° 0 mm 0 mps 739 mmHg 51%
    08:00 +29°C° 0 mm 0 mps 740 mmHg 45%
    09:00 +34°C° 0 mm 1 mps 740 mmHg 38%
    10:00 +37°C° 0 mm 1 mps 741 mmHg 32%
    11:00 +40°C° 0 mm 1 mps 740 mmHg 29%
    12:00 +42°C° 0 mm 1 mps 739 mmHg 25%
    13:00 +41°C° 0 mm 0 mps 738 mmHg 22%
    14:00 +41°C° 0.1 mm 1 mps 737 mmHg 28%
    15:00 +37°C° 0.1 mm 1 mps 736 mmHg 34%
    16:00 +35°C° 0.1 mm 2 mps 735 mmHg 40%
    17:00 +33°C° 0.1 mm 1 mps 736 mmHg 45%
    18:00 +31°C° 0.1 mm 1 mps 736 mmHg 50%
    19:00 +27°C° 0.1 mm 0 mps 737 mmHg 55%
    20:00 +27°C° 0 mm 0 mps 737 mmHg 56%
    21:00 +26°C° 0 mm 0 mps 738 mmHg 57%
    22:00 +26°C° 0 mm 0 mps 738 mmHg 59%
    23:00 +25°C° 0 mm 0 mps 738 mmHg 60%

    27 August, Tuesday

    Time Temperature Precipitation Wind Pressure Humidity
    00:00 +25°C° 0 mm 0 mps 738 mmHg 62%
    01:00 +25°C° 0 mm 0 mps 738 mmHg 64%
    02:00 +24°C° 0.1 mm 0 mps 738 mmHg 68%
    03:00 +23°C° 0.1 mm 0 mps 738 mmHg 72%
    04:00 +25°C° 0.1 mm 1 mps 738 mmHg 75%
    05:00 +23°C° 0 mm 0 mps 738 mmHg 73%
    06:00 +24°C° 0 mm 0 mps 739 mmHg 70%
    07:00 +25°C° 0 mm 0 mps 740 mmHg 68%
    08:00 +28°C° 0 mm 0 mps 740 mmHg 58%
    09:00 +33°C° 0 mm 1 mps 741 mmHg 48%
    10:00 +35°C° 0 mm 1 mps 741 mmHg 39%
    11:00 +36°C° 0 mm 1 mps 740 mmHg 36%
    12:00 +38°C° 0 mm 2 mps 739 mmHg 32%
    13:00 +39°C° 0 mm 2 mps 738 mmHg 29%
    14:00 +39°C° 0 mm 1 mps 737 mmHg 31%
    15:00 +37°C° 0 mm 1 mps 737 mmHg 33%
    16:00 +36°C° 0 mm 1 mps 736 mmHg 34%
    17:00 +32°C° 0 mm 0 mps 736 mmHg 41%
    18:00 +29°C° 0 mm 0 mps 736 mmHg 48%
    19:00 +27°C° 0 mm 0 mps 737 mmHg 55%
    20:00 +26°C° 0 mm 0 mps 737 mmHg 57%
    21:00 +26°C° 0 mm 0 mps 738 mmHg 59%
    22:00 +28°C° 0 mm 1 mps 739 mmHg 61%
    23:00 +27°C° 0 mm 1 mps 738 mmHg 62%
    Show more